User: anonymous   Login
Location: Mountain View
(37.3861°N, 122.0839°W)
Time: 07:34:17
(UTC-07:00)
Language:

Tiangong 2 - Orbit

View from above orbital plane
View from above orbital plane
View from above satellite
View from above satellite

Ground track
Ground track

The orbit data is extracted from the following two-line orbital elements,

1 41765U 16057A   19084.19073211  .00003608  00000-0  46206-4 0  9997
2 41765  42.7836 107.8411 0007250  34.0314   5.7325 15.61009095143912
Epoch (UTC): 25 March 2019 04:34:39
Eccentricity: 0.0007250
inclination: 42.7836°
perigee height: 380 km
apogee height: 389 km
right ascension of ascending node: 107.8411°
argument of perigee: 34.0314°
revolutions per day: 15.61009095
mean anomaly at epoch: 5.7325°
orbit number at epoch: 14391

The dashed part of the orbit path shows where the satellite is in the earth's shadow,  

DLR